Location: Kaarina
(60.4167°N, 22.4167°E)
Time: 11:44:32
(UTC+03:00)

ALOS 2 - Pass Details

Date: 24 August 2019
Orbit: 630 x 632 km, 97.9° (Epoch: 17 October)

Event Time Altitude Azimuth Distance (km) Brightness Sun altitude
Exits shadow 23:51:42 24° 125° (SE) 1,303 3.7 -15.8°
Maximum altitude 23:53:59 48° 63° (ENE) 835 3.2 -16.0°
Drops below altitude 10° 23:58:14 10° 350° (N) 2,031 6.4 -16.2°
Sets 00:00:30 0° 345° (NNW) 2,944 7.8 -16.3°
